Weather History for KNQI - January, 2013

Change the Weather History Date:

Tuesday, January 22, 2013

  Actual Average Record
Temperature  
Mean Temperature 60 °F -  
Max Temperature 75 °F 68 °F 84 °F (2012)
Min Temperature 44 °F 47 °F 30 °F (2011)
Degree Days  
Heating Degree Days 6    
Growing Degree Days 10 (Base 50)    
Moisture  
Dew Point 49 °F    
Average Humidity 83    
Maximum Humidity 100    
Minimum Humidity 41    
Precipitation  
Precipitation 0.01 in - - ()
Sea Level Pressure  
Sea Level Pressure 30.22 in    
Wind  
Wind Speed 5 mph (ENE)    
Max Wind Speed 14 mph    
Max Gust Speed 20 mph    
Visibility 7 miles    
Events Fog    
Averages and records for this station are not official NWS values.
T = Trace of Precipitation, MM = Missing Value Source: NWS Daily Summary

Daily Weather History Graph

Daily Weather History Graph

Search for Another Location

Airport or City:

Trip Planner

Search our weather history database for the weather conditions in past years. The results will help you decide how hot, cold, wet, or windy it might be!

Date:

Astronomy

Jan. 22, 2013 Rise Set
Actual Time 7:21 AM CST 6:04 PM CST
Civil Twilight 6:56 AM CST 6:29 PM CST
Nautical Twilight 6:28 AM CST 6:57 PM CST
Astronomical Twilight 6:00 AM CST 7:25 PM CST
Moon 2:32 PM CST (1/22) 3:40 AM CST (1/22)
Length of Visible Light 11h 32m
Length of Day
10h 43m
Waxing Gibbous, 83% of the Moon is Illuminated
Jan 22
Waxing Gibbous
Jan 26
Full
Feb 3
Last Quarter
Feb 10
New
Feb 17
First Quarter

Hourly Weather History & Observations

Time (CST) Temp. Windchill Dew Point Humidity Pressure Visibility Wind Dir Wind Speed Gust Speed Precip Events Conditions
12:13 AM 48.2 °F - 46.4 °F 93% 30.20 in 10.0 mi ENE 4.6 mph - N/A   Scattered Clouds
12:51 AM 46.4 °F 44.3 °F 46.4 °F 100% 30.19 in 1.5 mi ENE 4.6 mph - N/A   Scattered Clouds
12:53 AM 46.4 °F 44.3 °F 46.4 °F 100% 30.19 in 0.8 mi ENE 4.6 mph - N/A   Mist
12:56 AM 46.9 °F - 46.0 °F 97% 30.18 in 0.5 mi ENE 4.6 mph - N/A Fog Fog
1:03 AM 48.2 °F - 46.4 °F 93% 30.18 in 0.2 mi ENE 4.6 mph - N/A Fog Fog
1:17 AM 46.4 °F 43.5 °F 46.4 °F 100% 30.18 in 0.8 mi ENE 5.8 mph - N/A   Mist
1:24 AM 46.4 °F 43.5 °F 46.4 °F 100% 30.17 in 2.0 mi ENE 5.8 mph - N/A   Mostly Cloudy
1:33 AM 48.2 °F - 46.4 °F 93% 30.17 in 7.0 mi ENE 5.8 mph - N/A   Partly Cloudy
1:56 AM 48.0 °F - 48.0 °F 100% 30.17 in 8.0 mi NE 4.6 mph - N/A   Clear
2:56 AM 48.9 °F - 48.0 °F 97% 30.17 in 10.0 mi ENE 3.5 mph - N/A   Clear
3:56 AM 50.0 °F - 48.9 °F 96% 30.19 in 8.0 mi Calm Calm - N/A   Clear
4:32 AM 46.4 °F - 46.4 °F 100% 30.20 in 2.5 mi Calm Calm - N/A   Clear
4:41 AM 46.4 °F 45.2 °F 46.4 °F 100% 30.20 in 5.0 mi NW 3.5 mph - N/A   Clear
4:56 AM 46.0 °F 43.1 °F 45.0 °F 96% 30.20 in 6.0 mi WNW 5.8 mph - N/A   Clear
5:56 AM 46.9 °F - 46.0 °F 97% 30.21 in 4.0 mi North 4.6 mph - 0.01 in   Clear
6:31 AM 46.4 °F - 46.4 °F 100% 30.23 in 4.0 mi Calm Calm - N/A   Scattered Clouds
6:56 AM 45.0 °F 42.6 °F 44.1 °F 97% 30.23 in 5.0 mi NW 4.6 mph - N/A   Scattered Clouds
7:19 AM 44.6 °F 42.2 °F 44.6 °F 100% 30.25 in 2.5 mi NW 4.6 mph - N/A   Mostly Cloudy
7:42 AM 46.4 °F 42.9 °F 46.4 °F 100% 30.25 in 3.0 mi North 6.9 mph - N/A   Mostly Cloudy
7:56 AM 48.0 °F - 46.9 °F 96% 30.25 in 2.5 mi NNW 3.5 mph - N/A   Mostly Cloudy
8:15 AM 50.0 °F - 48.2 °F 94% 30.26 in 3.0 mi Calm Calm - N/A   Mostly Cloudy
8:56 AM 55.9 °F - 52.0 °F 87% 30.27 in 7.0 mi NE 3.5 mph - N/A   Mostly Cloudy
9:56 AM 66.9 °F - 55.9 °F 68% 30.29 in 10.0 mi ENE 5.8 mph - N/A   Mostly Cloudy
10:56 AM 71.1 °F - 54.0 °F 55% 30.28 in 10.0 mi ESE 6.9 mph - N/A   Mostly Cloudy
11:56 AM 72.0 °F - 51.1 °F 48% 30.25 in 10.0 mi ESE 8.1 mph - N/A   Mostly Cloudy
12:56 PM 75.0 °F - 50.0 °F 41% 30.22 in 10.0 mi ESE 12.7 mph 19.6 mph N/A   Mostly Cloudy
1:56 PM 75.0 °F - 50.0 °F 41% 30.21 in 10.0 mi ESE 9.2 mph - N/A   Mostly Cloudy
2:56 PM 73.9 °F - 50.0 °F 43% 30.20 in 10.0 mi SSE 13.8 mph 18.4 mph N/A   Mostly Cloudy
3:56 PM 72.0 °F - 48.9 °F 44% 30.19 in 10.0 mi SE 11.5 mph - N/A   Mostly Cloudy
4:56 PM 70.0 °F - 52.0 °F 53% 30.19 in 10.0 mi East 12.7 mph - N/A   Overcast
5:56 PM 68.0 °F - 53.1 °F 59% 30.20 in 10.0 mi ESE 10.4 mph - N/A   Overcast
6:56 PM 64.0 °F - 53.1 °F 67% 30.22 in 10.0 mi East 5.8 mph - N/A   Mostly Cloudy
7:56 PM 61.0 °F - 51.1 °F 70% 30.23 in 10.0 mi East 3.5 mph - N/A   Mostly Cloudy
8:56 PM 57.9 °F - 51.1 °F 78% 30.24 in 10.0 mi East 5.8 mph - N/A   Mostly Cloudy
9:56 PM 55.9 °F - 52.0 °F 87% 30.25 in 10.0 mi East 4.6 mph - N/A   Mostly Cloudy
10:56 PM 55.9 °F - 52.0 °F 87% 30.25 in 10.0 mi East 4.6 mph - N/A   Mostly Cloudy
11:56 PM 55.9 °F - 52.0 °F 87% 30.25 in 10.0 mi ENE 3.5 mph - N/A   Clear